Arad, Romania

10:50 PM EEST on September 27, 2016 (GMT +0300)
Arad

Weather History for LRAR - January, 2013

Change the Weather History Date:

Friday, January 4, 2013

  Actual Average Record
Temperature  
Mean Temperature 40 °F -  
Max Temperature 48 °F 38 °F 50 °F (2012)
Min Temperature 32 °F 26 °F 0 °F (2009)
Degree Days  
Heating Degree Days 25    
Moisture  
Dew Point 38 °F    
Average Humidity 92    
Maximum Humidity 100    
Minimum Humidity 61    
Precipitation  
Precipitation 0.02 in - - ()
Sea Level Pressure  
Sea Level Pressure 30.24 in    
Wind  
Wind Speed 7 mph ()    
Max Wind Speed 20 mph    
Max Gust Speed -    
Visibility 7.3 miles    
Events Snow    
Averages and records for this station are not official NWS values.
T = Trace of Precipitation, MM = Missing Value Source: Averaged Metar Reports

Daily Weather History Graph

Daily Weather History Graph

Search for Another Location

Airport or City:

Trip Planner

Search our weather history database for the weather conditions in past years. The results will help you decide how hot, cold, wet, or windy it might be!

Date:

Astronomy

Jan. 04, 2013 Rise Set
Actual Time 8:17 AM EET 5:02 PM EET
Civil Twilight 7:43 AM EET 5:37 PM EET
Nautical Twilight 7:05 AM EET 6:14 PM EET
Astronomical Twilight 6:28 AM EET 6:51 PM EET
Moon No Moon Rise 11:25 AM EET (1/4)
Length of Visible Light 9h 54m
Length of Day
8h 45m
Waning Gibbous, 58% of the Moon is Illuminated
Jan 4
Waning Gibbous
Jan 5
Last Quarter
Jan 11
New
Jan 19
First Quarter
Jan 27
Full

Hourly Weather History & Observations

Time (EET) Temp. Windchill Dew Point Humidity Pressure Visibility Wind Dir Wind Speed Gust Speed Precip Events Conditions
12:00 AM 33 °F - 32 °F 93% 30.43 in 6 mi SE 4.5 mph - -   Overcast
12:00 AM 35.6 °F 27.5 °F 35.6 °F 100% 30.39 in 5.0 mi SSE 11.5 mph - N/A   Mostly Cloudy
1:00 AM 34 °F - 32 °F 91% 30.41 in 6 mi SE 4.5 mph - -   Overcast
1:00 AM 35.6 °F 27.5 °F 35.6 °F 100% 30.36 in 4.3 mi South 11.5 mph - N/A   Mostly Cloudy
2:00 AM 34 °F - 33 °F 93% 30.38 in 6 mi SSE 4.5 mph - -   Overcast
2:00 AM 35.6 °F 27.5 °F 35.6 °F 100% 30.36 in 5.0 mi South 11.5 mph - N/A   Mostly Cloudy
3:00 AM 35 °F - 33 °F 92% 30.36 in 6 mi South 8.9 mph - - Snow Light Snow
3:00 AM 35.6 °F 27.5 °F 35.6 °F 100% 30.33 in 6.2 mi SSW 11.5 mph - N/A   Mostly Cloudy
4:00 AM 35 °F - 34 °F 95% 30.34 in 12 mi South 8.9 mph - - Snow Light Snow
4:00 AM 37.4 °F 28.9 °F 37.4 °F 100% 30.30 in 6.2 mi SSW 13.8 mph - N/A   Mostly Cloudy
5:00 AM 36 °F - 34 °F 89% 30.32 in 12 mi South 8.9 mph - -   Light Ice Pellets
5:00 AM 37.4 °F 29.8 °F 37.4 °F 100% 30.27 in 6.2 mi SSW 11.5 mph - N/A   Mostly Cloudy
5:30 AM 37.4 °F 29.8 °F 37.4 °F 100% 30.24 in 6.2 mi SSW 11.5 mph - N/A   Mostly Cloudy
6:00 AM 36 °F - 35 °F 93% 30.28 in 12 mi SSW 8.9 mph - -   Overcast
6:00 AM 37.4 °F 29.8 °F 37.4 °F 100% 30.24 in 6.2 mi SW 11.5 mph - N/A   Mostly Cloudy
6:30 AM 37.4 °F 32.1 °F 37.4 °F 100% 30.24 in 6.2 mi South 6.9 mph - N/A   Mostly Cloudy
7:00 AM 37 °F - 35 °F 92% 30.28 in 12 mi SSW 6.7 mph - -   Overcast
7:00 AM 37.4 °F 32.1 °F 37.4 °F 100% 30.24 in 6.2 mi WSW 6.9 mph - N/A   Mostly Cloudy
7:30 AM 37.4 °F 30.8 °F 37.4 °F 100% 30.24 in 6.2 mi WSW 9.2 mph - N/A   Partly Cloudy
8:00 AM 36 °F - 35 °F 95% 30.26 in 12 mi SSW 4.5 mph - -   Partly Cloudy
8:00 AM 39.2 °F 35.0 °F 39.2 °F 100% 30.24 in - WSW 5.8 mph - N/A   Clear
8:30 AM 37.4 °F 30.8 °F 37.4 °F 100% 30.24 in 6.2 mi WSW 9.2 mph - N/A   Partly Cloudy
9:00 AM 35 °F - 35 °F 98% 30.27 in 2 mi SW 2.2 mph - -   Mist
9:00 AM 39.2 °F 33.0 °F 39.2 °F 100% 30.24 in 6.2 mi West 9.2 mph - N/A   Partly Cloudy
9:30 AM 41.0 °F 36.4 °F 41.0 °F 100% 30.24 in - SW 6.9 mph - N/A   Clear
10:00 AM 38 °F - 36 °F 92% 30.25 in 2 mi SSW 2.2 mph - -   Mist
10:00 AM 41.0 °F 38.0 °F 41.0 °F 100% 30.21 in - WSW 4.6 mph - N/A   Clear
10:30 AM 42.8 °F 40.1 °F 42.8 °F 100% 30.24 in - West 4.6 mph - N/A   Clear
11:00 AM 42 °F - 38 °F 81% 30.25 in 2 mi WSW 2.2 mph - -   Mist
11:00 AM 42.8 °F 37.5 °F 42.8 °F 100% 30.24 in - WNW 9.2 mph - N/A   Clear
11:30 AM 44.6 °F 39.7 °F 44.6 °F 100% 30.24 in - NW 9.2 mph - N/A   Clear
12:00 PM 44 °F - 39 °F 76% 30.25 in 2 mi WNW 2.2 mph - -   Mist
12:00 PM 46.4 °F 42.9 °F 44.6 °F 93% 30.24 in 6.2 mi NW 6.9 mph - N/A   Partly Cloudy
12:30 PM 48.2 °F - 44.6 °F 87% 30.21 in 6.2 mi NW 12.7 mph - N/A   Scattered Clouds
1:00 PM 46 °F - 40 °F 73% 30.23 in 6 mi NNW 2.2 mph - -   Partly Cloudy
1:00 PM 48.2 °F - 46.4 °F 93% 30.21 in 6.2 mi NW 13.8 mph - N/A   Scattered Clouds
1:30 PM 48.2 °F - 44.6 °F 87% 30.21 in 6.2 mi NW 17.3 mph - N/A   Scattered Clouds
2:00 PM 48 °F - 40 °F 66% 30.22 in 6 mi NW 4.5 mph - -   Mostly Cloudy
2:00 PM 48.2 °F - 44.6 °F 87% 30.18 in 6.2 mi NW 17.3 mph - N/A   Mostly Cloudy
2:30 PM 48.2 °F - 44.6 °F 87% 30.18 in 6.2 mi NW 19.6 mph - N/A   Mostly Cloudy
3:00 PM 48.2 °F - 42.8 °F 82% 30.18 in 6.2 mi NW 18.4 mph - N/A   Mostly Cloudy
3:30 PM 48.2 °F - 42.8 °F 82% 30.18 in 6.2 mi NW 19.6 mph - N/A   Partly Cloudy
4:00 PM 47 °F - 38 °F 62% 30.20 in 12 mi WNW 6.7 mph - -   Mostly Cloudy
4:00 PM 48.2 °F - 42.8 °F 82% 30.18 in 6.2 mi NW 16.1 mph - N/A   Scattered Clouds
4:30 PM 46.4 °F 41.9 °F 42.8 °F 87% 30.18 in 6.2 mi NNW 9.2 mph - N/A   Scattered Clouds
5:00 PM 47 °F - 38 °F 61% 30.20 in 12 mi NW 4.5 mph - -   Scattered Clouds
5:00 PM 44.6 °F 40.7 °F 41.0 °F 87% 30.18 in 6.2 mi NW 6.9 mph - N/A   Partly Cloudy
5:30 PM 41.0 °F 39.0 °F 41.0 °F 100% 30.18 in - NNW 3.5 mph - N/A   Clear
6:00 PM 44 °F - 37 °F 68% 30.19 in 12 mi NW 2.2 mph - -   Partly Cloudy
6:00 PM 37.4 °F 33.8 °F 37.4 °F 100% 30.18 in - WNW 4.6 mph - N/A   Clear
6:30 PM 37.4 °F - 37.4 °F 100% 30.18 in - NW 2.3 mph - N/A   Clear
7:00 PM 39 °F - 36 °F 86% 30.20 in 12 mi WNW 2.2 mph - -   Partly Cloudy
7:00 PM 37.4 °F - 37.4 °F 100% 30.18 in - Variable 1.2 mph - N/A   Clear
7:30 PM 37.4 °F - 37.4 °F 100% 30.18 in - West 2.3 mph - N/A   Clear
8:00 PM 41 °F - 37 °F 79% 30.20 in 12 mi WNW 2.2 mph - -   Partly Cloudy
8:00 PM 35.6 °F 32.8 °F 35.6 °F 100% 30.18 in - WSW 3.5 mph - N/A   Clear
8:30 PM 35.6 °F - 35.6 °F 100% 30.18 in - WSW 2.3 mph - N/A   Clear
9:00 PM 34 °F - 33 °F 93% 30.20 in 12 mi SSW 2.2 mph - -   Scattered Clouds
9:00 PM 33.8 °F - 33.8 °F 100% 30.18 in - South 2.3 mph - N/A   Clear
10:00 PM 35 °F - 34 °F 94% 30.19 in 12 mi South 6.7 mph - -   Mostly Cloudy
10:00 PM 33.8 °F 30.8 °F 33.8 °F 100% 30.15 in - SSE 3.5 mph - N/A   Clear
11:00 PM 35 °F - 34 °F 95% 30.17 in 12 mi South 4.5 mph - -   Mostly Cloudy
11:00 PM 33.8 °F 29.6 °F 33.8 °F 100% 30.12 in - South 4.6 mph - N/A   Clear